Time,TemperatureF,DewpointF,PressureIn,WindDirection,WindDirectionDegrees,WindSpeedMPH,WindSpeedGustMPH,Humidity,HourlyPrecipIn,Conditions,Clouds,dailyrainin,SoftwareType,DateUTC
2013-04-04 00:01:00,56.5,28.4,29.89,SW,221,0.0,0.0,34,0.00,,,0.00,Wunderground v.1.15,2013-04-04 07:01:00,
2013-04-04 00:07:00,56.5,29.8,29.89,WSW,239,0.0,0.0,36,0.00,,,0.00,Wunderground v.1.15,2013-04-04 07:07:00,
2013-04-04 00:13:00,55.6,29.7,29.89,SW,224,0.0,0.0,37,0.00,,,0.00,Wunderground v.1.15,2013-04-04 07:13:00,
2013-04-04 00:19:00,54.6,28.8,29.89,WSW,239,0.0,0.0,37,0.00,,,0.00,Wunderground v.1.15,2013-04-04 07:19:00,
2013-04-04 00:24:00,54.1,29.0,29.89,WSW,239,0.0,0.0,38,0.00,,,0.00,Wunderground v.1.15,2013-04-04 07:24:00,
2013-04-04 00:30:00,53.9,29.5,29.89,WSW,239,0.0,0.0,39,0.00,,,0.00,Wunderground v.1.15,2013-04-04 07:30:00,
2013-04-04 00:35:00,54.0,30.2,29.89,WSW,240,0.0,0.0,40,0.00,,,0.00,Wunderground v.1.15,2013-04-04 07:35:00,
2013-04-04 00:40:00,53.7,29.3,29.89,WSW,255,0.0,0.0,39,0.00,,,0.00,Wunderground v.1.15,2013-04-04 07:40:00,
2013-04-04 00:46:00,52.5,28.8,29.89,WSW,239,0.0,0.0,40,0.00,,,0.00,Wunderground v.1.15,2013-04-04 07:46:00,
2013-04-04 00:51:00,51.7,29.3,29.89,WSW,240,0.0,0.0,42,0.00,,,0.00,Wunderground v.1.15,2013-04-04 07:51:00,
2013-04-04 00:57:00,52.4,30.0,29.89,WSW,242,0.0,0.0,42,0.00,,,0.00,Wunderground v.1.15,2013-04-04 07:57:00,
2013-04-04 01:02:00,51.7,28.1,29.88,WSW,250,0.0,0.0,40,0.00,,,0.00,Wunderground v.1.15,2013-04-04 08:02:00,
2013-04-04 01:08:00,51.3,28.4,29.88,WSW,249,0.0,0.0,41,0.00,,,0.00,Wunderground v.1.15,2013-04-04 08:08:00,
2013-04-04 01:14:00,51.3,27.8,29.88,WSW,250,0.0,0.0,40,0.00,,,0.00,Wunderground v.1.15,2013-04-04 08:14:00,
2013-04-04 01:20:00,51.4,27.2,29.88,SW,234,0.0,0.0,39,0.00,,,0.00,Wunderground v.1.15,2013-04-04 08:20:00,
2013-04-04 01:26:00,51.6,28.0,29.88,West,262,0.0,0.0,40,0.00,,,0.00,Wunderground v.1.15,2013-04-04 08:26:00,
2013-04-04 01:31:00,51.9,27.7,29.88,WSW,248,0.0,0.0,39,0.00,,,0.00,Wunderground v.1.15,2013-04-04 08:31:00,
2013-04-04 01:36:00,52.2,28.0,29.87,WSW,246,0.0,0.0,39,0.00,,,0.00,Wunderground v.1.15,2013-04-04 08:36:00,
2013-04-04 01:42:00,53.1,29.4,29.87,SW,224,0.0,0.0,40,0.00,,,0.00,Wunderground v.1.15,2013-04-04 08:42:00,
2013-04-04 01:47:00,53.9,30.1,29.87,SW,221,0.0,0.0,40,0.00,,,0.00,Wunderground v.1.15,2013-04-04 08:47:00,
2013-04-04 01:53:00,54.5,31.3,29.87,SW,216,0.0,0.0,41,0.00,,,0.00,Wunderground v.1.15,2013-04-04 08:53:00,
2013-04-04 01:59:00,54.6,31.9,29.87,SSW,199,0.0,0.0,42,0.00,,,0.00,Wunderground v.1.15,2013-04-04 08:59:00,
2013-04-04 02:04:00,54.6,31.9,29.87,SSW,206,0.0,0.0,42,0.00,,,0.00,Wunderground v.1.15,2013-04-04 09:04:00,
2013-04-04 02:10:00,54.5,32.4,29.87,SSW,211,0.0,0.0,43,0.00,,,0.00,Wunderground v.1.15,2013-04-04 09:10:00,
2013-04-04 02:17:00,54.1,32.1,29.87,SW,226,0.0,0.0,43,0.00,,,0.00,Wunderground v.1.15,2013-04-04 09:17:00,
2013-04-04 02:22:00,54.0,32.0,29.86,SW,221,0.0,0.0,43,0.00,,,0.00,Wunderground v.1.15,2013-04-04 09:22:00,
2013-04-04 02:27:00,54.2,32.2,29.86,SW,217,0.0,0.0,43,0.00,,,0.00,Wunderground v.1.15,2013-04-04 09:27:00,
2013-04-04 02:32:00,54.4,31.8,29.86,SSW,212,0.0,0.0,42,0.00,,,0.00,Wunderground v.1.15,2013-04-04 09:32:00,
2013-04-04 02:38:00,54.4,32.3,29.86,SSW,193,0.0,0.0,43,0.00,,,0.00,Wunderground v.1.15,2013-04-04 09:38:00,
2013-04-04 02:44:00,54.6,33.1,29.85,SSW,205,0.0,0.0,44,0.00,,,0.00,Wunderground v.1.15,2013-04-04 09:44:00,
2013-04-04 02:50:00,54.3,33.9,29.85,SW,225,0.0,0.0,46,0.00,,,0.00,Wunderground v.1.15,2013-04-04 09:50:00,
2013-04-04 02:56:00,53.9,33.6,29.85,SW,216,0.0,0.0,46,0.00,,,0.00,Wunderground v.1.15,2013-04-04 09:56:00,
2013-04-04 03:01:00,54.2,32.7,29.84,WSW,241,0.0,0.0,44,0.00,,,0.00,Wunderground v.1.15,2013-04-04 10:01:00,
2013-04-04 03:07:00,54.7,32.0,29.84,SW,229,0.0,0.0,42,0.00,,,0.00,Wunderground v.1.15,2013-04-04 10:07:00,
2013-04-04 03:12:00,54.3,31.7,29.84,SW,227,0.0,0.0,42,0.00,,,0.00,Wunderground v.1.15,2013-04-04 10:12:00,
2013-04-04 03:18:00,53.8,31.8,29.84,WSW,252,0.0,0.0,43,0.00,,,0.00,Wunderground v.1.15,2013-04-04 10:18:00,
2013-04-04 03:24:00,53.6,31.6,29.84,WSW,253,0.0,0.0,43,0.00,,,0.00,Wunderground v.1.15,2013-04-04 10:24:00,
2013-04-04 03:30:00,52.7,31.4,29.84,WSW,254,0.0,0.0,44,0.00,,,0.00,Wunderground v.1.15,2013-04-04 10:30:00,
2013-04-04 03:35:00,51.5,30.8,29.85,ESE,103,0.0,0.0,45,0.00,,,0.00,Wunderground v.1.15,2013-04-04 10:35:00,
2013-04-04 03:41:00,50.2,30.2,29.85,South,181,0.0,0.0,46,0.00,,,0.00,Wunderground v.1.15,2013-04-04 10:41:00,
2013-04-04 03:47:00,50.3,30.3,29.84,South,185,0.0,0.0,46,0.00,,,0.00,Wunderground v.1.15,2013-04-04 10:47:00,
2013-04-04 03:52:00,51.0,29.8,29.84,South,178,0.0,0.0,44,0.00,,,0.00,Wunderground v.1.15,2013-04-04 10:52:00,
2013-04-04 03:58:00,51.7,29.9,29.84,South,185,0.0,0.0,43,0.00,,,0.00,Wunderground v.1.15,2013-04-04 10:58:00,
2013-04-04 04:04:00,51.4,29.6,29.84,South,169,0.0,0.0,43,0.00,,,0.00,Wunderground v.1.15,2013-04-04 11:04:00,
2013-04-04 04:09:00,50.4,29.3,29.84,South,174,0.0,0.0,44,0.00,,,0.00,Wunderground v.1.15,2013-04-04 11:09:00,
2013-04-04 04:15:00,49.3,29.4,29.84,SSE,156,0.0,0.0,46,0.00,,,0.00,Wunderground v.1.15,2013-04-04 11:15:00,
2013-04-04 04:20:00,47.9,28.1,29.84,SSE,153,0.0,0.0,46,0.00,,,0.00,Wunderground v.1.15,2013-04-04 11:20:00,
2013-04-04 04:27:00,46.4,28.3,29.83,SSE,153,0.0,0.0,49,0.00,,,0.00,Wunderground v.1.15,2013-04-04 11:27:00,
2013-04-04 04:32:00,46.4,28.8,29.83,SSW,206,0.0,0.0,50,0.00,,,0.00,Wunderground v.1.15,2013-04-04 11:32:00,
2013-04-04 04:38:00,46.9,30.2,29.83,South,187,0.0,0.0,52,0.00,,,0.00,Wunderground v.1.15,2013-04-04 11:38:00,
2013-04-04 04:44:00,47.7,30.4,29.83,SW,234,0.0,0.0,51,0.00,,,0.00,Wunderground v.1.15,2013-04-04 11:44:00,
2013-04-04 04:50:00,47.7,30.4,29.83,WSW,238,0.0,0.0,51,0.00,,,0.00,Wunderground v.1.15,2013-04-04 11:50:00,
2013-04-04 04:56:00,47.7,30.0,29.83,WSW,238,0.0,0.0,50,0.00,,,0.00,Wunderground v.1.15,2013-04-04 11:56:00,
2013-04-04 05:02:00,47.7,30.0,29.83,SW,231,0.0,0.0,50,0.00,,,0.00,Wunderground v.1.15,2013-04-04 12:02:00,
2013-04-04 05:07:00,47.6,29.9,29.82,SW,221,0.0,0.0,50,0.00,,,0.00,Wunderground v.1.15,2013-04-04 12:07:00,
2013-04-04 05:13:00,47.6,29.9,29.82,SW,221,0.0,0.0,50,0.00,,,0.00,Wunderground v.1.15,2013-04-04 12:13:00,
2013-04-04 05:18:00,47.3,30.1,29.82,WSW,244,0.0,0.0,51,0.00,,,0.00,Wunderground v.1.15,2013-04-04 12:18:00,
2013-04-04 05:23:00,47.1,30.4,29.82,WSW,243,0.0,0.0,52,0.00,,,0.00,Wunderground v.1.15,2013-04-04 12:23:00,
2013-04-04 05:28:00,47.1,29.9,29.82,WSW,244,0.0,0.0,51,0.00,,,0.00,Wunderground v.1.15,2013-04-04 12:28:00,
2013-04-04 05:34:00,46.9,30.2,29.82,WSW,244,0.0,0.0,52,0.00,,,0.00,Wunderground v.1.15,2013-04-04 12:34:00,
2013-04-04 05:40:00,47.3,30.1,29.82,SSW,211,0.0,0.0,51,0.00,,,0.00,Wunderground v.1.15,2013-04-04 12:40:00,
2013-04-04 05:45:00,47.7,28.9,29.82,SSW,212,0.0,0.0,48,0.00,,,0.00,Wunderground v.1.15,2013-04-04 12:45:00,
2013-04-04 05:51:00,49.2,29.3,29.81,SW,220,0.0,0.0,46,0.00,,,0.00,Wunderground v.1.15,2013-04-04 12:51:00,
2013-04-04 05:57:00,50.2,29.1,29.82,SW,217,0.0,0.0,44,0.00,,,0.00,Wunderground v.1.15,2013-04-04 12:57:00,
2013-04-04 06:02:00,50.5,29.4,29.82,SSW,212,0.0,0.0,44,0.00,,,0.00,Wunderground v.1.15,2013-04-04 13:02:00,
2013-04-04 06:08:00,50.3,29.7,29.82,SSW,210,0.0,0.0,45,0.00,,,0.00,Wunderground v.1.15,2013-04-04 13:08:00,
2013-04-04 06:14:00,49.5,29.6,29.82,SW,231,0.0,0.0,46,0.00,,,0.00,Wunderground v.1.15,2013-04-04 13:14:00,
2013-04-04 06:20:00,49.9,30.5,29.82,SW,230,0.0,0.0,47,0.00,,,0.00,Wunderground v.1.15,2013-04-04 13:20:00,
2013-04-04 06:25:00,49.5,30.6,29.82,SW,230,0.0,0.0,48,0.00,,,0.00,Wunderground v.1.15,2013-04-04 13:25:00,
2013-04-04 06:32:00,49.5,30.6,29.82,SW,230,0.0,0.0,48,0.00,,,0.00,Wunderground v.1.15,2013-04-04 13:32:00,
2013-04-04 06:38:00,-999.9,-99.9,29.82,North,32767,-999.0,0.0,255,-99.99,,,0.00,Wunderground v.1.15,2013-04-04 13:38:00,
2013-04-04 06:44:00,-999.9,-99.9,29.81,North,32767,-999.0,0.0,255,-99.99,,,0.00,Wunderground v.1.15,2013-04-04 13:44:00,
2013-04-04 06:50:00,-999.9,-99.9,29.81,North,32767,-999.0,0.0,255,-99.99,,,0.00,Wunderground v.1.15,2013-04-04 13:50:00,
2013-04-04 06:56:00,-999.9,-99.9,29.81,North,32767,-999.0,0.0,255,-99.99,,,0.00,Wunderground v.1.15,2013-04-04 13:56:00,
2013-04-04 07:01:00,-999.9,-99.9,29.80,North,32767,-999.0,0.0,255,-99.99,,,0.00,Wunderground v.1.15,2013-04-04 14:01:00,
2013-04-04 07:07:00,-999.9,-99.9,29.80,North,32767,-999.0,0.0,255,-99.99,,,0.00,Wunderground v.1.15,2013-04-04 14:07:00,
2013-04-04 07:12:00,-999.9,-99.9,29.80,North,32767,-999.0,0.0,255,-99.99,,,0.00,Wunderground v.1.15,2013-04-04 14:12:00,
2013-04-04 07:17:00,-999.9,-99.9,29.80,North,32767,-999.0,0.0,255,-99.99,,,0.00,Wunderground v.1.15,2013-04-04 14:17:00,
2013-04-04 07:22:00,-999.9,-99.9,29.80,North,32767,-999.0,0.0,255,-99.99,,,0.00,Wunderground v.1.15,2013-04-04 14:22:00,
2013-04-04 07:28:00,-999.9,-99.9,29.80,North,32767,-999.0,0.0,255,-99.99,,,0.00,Wunderground v.1.15,2013-04-04 14:28:00,
2013-04-04 07:33:00,-999.9,-99.9,29.80,North,32767,-999.0,0.0,255,-99.99,,,0.00,Wunderground v.1.15,2013-04-04 14:33:00,
2013-04-04 07:39:00,-999.9,-99.9,29.79,North,32767,-999.0,0.0,255,-99.99,,,0.00,Wunderground v.1.15,2013-04-04 14:39:00,
2013-04-04 07:45:00,52.7,31.4,29.79,SW,221,0.0,0.0,44,0.00,,,0.00,Wunderground v.1.15,2013-04-04 14:45:00,
2013-04-04 07:51:00,52.9,31.0,29.79,SW,231,0.0,0.0,43,0.00,,,0.00,Wunderground v.1.15,2013-04-04 14:51:00,
2013-04-04 07:57:00,53.1,31.2,29.80,SW,227,0.0,0.0,43,0.00,,,0.00,Wunderground v.1.15,2013-04-04 14:57:00,
2013-04-04 08:02:00,53.1,31.2,29.80,SW,229,0.0,0.0,43,0.00,,,0.00,Wunderground v.1.15,2013-04-04 15:02:00,
2013-04-04 08:08:00,53.1,30.6,29.80,SW,229,0.0,0.0,42,0.00,,,0.00,Wunderground v.1.15,2013-04-04 15:08:00,
2013-04-04 08:14:00,53.1,30.0,29.80,SW,233,0.0,0.0,41,0.00,,,0.00,Wunderground v.1.15,2013-04-04 15:14:00,
2013-04-04 08:20:00,53.0,29.9,29.80,SW,225,0.0,0.0,41,0.00,,,0.00,Wunderground v.1.15,2013-04-04 15:20:00,
2013-04-04 08:25:00,53.0,29.9,29.80,SSW,210,0.0,0.0,41,0.00,,,0.00,Wunderground v.1.15,2013-04-04 15:25:00,
2013-04-04 08:31:00,53.3,29.6,29.80,SW,221,0.0,0.0,40,0.00,,,0.00,Wunderground v.1.15,2013-04-04 15:31:00,
2013-04-04 08:37:00,53.4,29.7,29.81,SW,226,0.0,0.0,40,0.00,,,0.00,Wunderground v.1.15,2013-04-04 15:37:00,
2013-04-04 08:42:00,53.6,29.8,29.81,SW,222,0.0,0.0,40,0.00,,,0.00,Wunderground v.1.15,2013-04-04 15:42:00,
2013-04-04 08:47:00,54.1,29.7,29.81,SSW,199,0.0,0.0,39,0.00,,,0.00,Wunderground v.1.15,2013-04-04 15:47:00,
2013-04-04 08:53:00,54.3,30.5,29.81,SE,146,0.0,0.0,40,0.00,,,0.00,Wunderground v.1.15,2013-04-04 15:53:00,
2013-04-04 08:59:00,54.4,29.3,29.81,South,172,0.0,0.0,38,0.00,,,0.00,Wunderground v.1.15,2013-04-04 15:59:00,
2013-04-04 09:05:00,54.9,29.1,29.82,SSE,160,0.0,0.0,37,0.00,,,0.00,Wunderground v.1.15,2013-04-04 16:05:00,
2013-04-04 09:12:00,54.8,29.7,29.82,SSW,212,0.0,0.0,38,0.00,,,0.00,Wunderground v.1.15,2013-04-04 16:12:00,
2013-04-04 09:18:00,55.1,29.3,29.82,SW,220,0.0,0.0,37,0.00,,,0.00,Wunderground v.1.15,2013-04-04 16:18:00,
2013-04-04 09:23:00,55.4,29.5,29.82,SSW,205,0.0,0.0,37,0.00,,,0.00,Wunderground v.1.15,2013-04-04 16:23:00,
2013-04-04 09:29:00,56.3,28.3,29.82,WSW,238,0.0,0.0,34,0.00,,,0.00,Wunderground v.1.15,2013-04-04 16:29:00,
2013-04-04 09:35:00,57.1,29.0,29.82,SW,233,0.0,0.0,34,0.00,,,0.00,Wunderground v.1.15,2013-04-04 16:35:00,
2013-04-04 09:41:00,57.8,28.9,29.83,WSW,246,0.0,0.0,33,0.00,,,0.00,Wunderground v.1.15,2013-04-04 16:41:00,
2013-04-04 09:47:00,58.9,29.1,29.83,SSW,213,0.0,0.0,32,0.00,,,0.00,Wunderground v.1.15,2013-04-04 16:47:00,
2013-04-04 09:53:00,59.7,29.8,29.83,SW,233,0.0,0.0,32,0.00,,,0.00,Wunderground v.1.15,2013-04-04 16:53:00,
2013-04-04 09:58:00,60.7,30.6,29.83,WSW,241,0.0,0.0,32,0.00,,,0.00,Wunderground v.1.15,2013-04-04 16:58:00,
2013-04-04 10:04:00,61.1,31.0,29.83,WSW,238,0.0,0.0,32,0.00,,,0.00,Wunderground v.1.15,2013-04-04 17:04:00,
2013-04-04 10:10:00,61.4,31.3,29.83,SW,234,0.0,0.0,32,0.00,,,0.00,Wunderground v.1.15,2013-04-04 17:10:00,
2013-04-04 10:16:00,61.9,32.5,29.83,West,259,0.0,0.0,33,0.00,,,0.00,Wunderground v.1.15,2013-04-04 17:16:00,
2013-04-04 10:22:00,62.1,32.6,29.83,WSW,247,0.0,0.0,33,0.00,,,0.00,Wunderground v.1.15,2013-04-04 17:22:00,
2013-04-04 10:28:00,62.0,32.5,29.83,WSW,255,0.0,0.0,33,0.00,,,0.00,Wunderground v.1.15,2013-04-04 17:28:00,
2013-04-04 10:35:00,61.8,32.4,29.83,SSW,207,0.0,0.0,33,0.00,,,0.00,Wunderground v.1.15,2013-04-04 17:35:00,
2013-04-04 10:42:00,62.1,32.6,29.83,WSW,250,0.0,0.0,33,0.00,,,0.00,Wunderground v.1.15,2013-04-04 17:42:00,
2013-04-04 10:47:00,62.5,31.4,29.83,WSW,248,0.0,0.0,31,0.00,,,0.00,Wunderground v.1.15,2013-04-04 17:47:00,
2013-04-04 10:52:00,62.6,33.1,29.83,SW,218,0.0,0.0,33,0.00,,,0.00,Wunderground v.1.15,2013-04-04 17:52:00,
2013-04-04 10:58:00,63.1,32.7,29.83,SW,227,0.0,0.0,32,0.00,,,0.00,Wunderground v.1.15,2013-04-04 17:58:00,
2013-04-04 11:03:00,63.4,32.2,29.83,WSW,250,0.0,0.0,31,0.00,,,0.00,Wunderground v.1.15,2013-04-04 18:03:00,
2013-04-04 11:08:00,63.6,34.7,29.83,SSW,199,0.0,0.0,34,0.00,,,0.00,Wunderground v.1.15,2013-04-04 18:08:00,
2013-04-04 11:14:00,63.6,34.7,29.83,SW,226,0.0,0.0,34,0.00,,,0.00,Wunderground v.1.15,2013-04-04 18:14:00,
2013-04-04 11:19:00,63.7,34.8,29.83,SW,215,0.0,0.0,34,0.00,,,0.00,Wunderground v.1.15,2013-04-04 18:19:00,
2013-04-04 11:24:00,63.5,35.3,29.83,SW,233,0.0,0.0,35,0.00,,,0.00,Wunderground v.1.15,2013-04-04 18:24:00,
2013-04-04 11:30:00,63.4,35.2,29.83,WSW,238,0.0,0.0,35,0.00,,,0.00,Wunderground v.1.15,2013-04-04 18:30:00,
2013-04-04 11:35:00,62.6,35.3,29.83,WSW,243,0.0,0.0,36,0.00,,,0.00,Wunderground v.1.15,2013-04-04 18:35:00,
2013-04-04 11:41:00,62.3,35.7,29.83,WSW,250,0.0,0.0,37,0.00,,,0.00,Wunderground v.1.15,2013-04-04 18:41:00,
2013-04-04 11:47:00,62.5,35.9,29.83,WNW,284,0.0,0.0,37,0.00,,,0.00,Wunderground v.1.15,2013-04-04 18:47:00,
2013-04-04 11:53:00,62.5,35.9,29.83,SW,229,0.0,0.0,37,0.00,,,0.00,Wunderground v.1.15,2013-04-04 18:53:00,
2013-04-04 11:59:00,62.6,35.9,29.82,SW,227,0.0,0.0,37,0.00,,,0.00,Wunderground v.1.15,2013-04-04 18:59:00,
2013-04-04 12:06:00,62.6,35.9,29.83,SW,227,0.0,0.0,37,0.00,,,0.00,Wunderground v.1.15,2013-04-04 19:06:00,
2013-04-04 12:12:00,62.8,35.4,29.83,SW,233,0.0,0.0,36,0.00,,,0.00,Wunderground v.1.15,2013-04-04 19:12:00,
2013-04-04 12:18:00,62.8,35.4,29.83,WSW,244,0.0,0.0,36,0.00,,,0.00,Wunderground v.1.15,2013-04-04 19:18:00,
2013-04-04 12:24:00,62.8,35.4,29.83,SW,230,0.0,0.0,36,0.00,,,0.00,Wunderground v.1.15,2013-04-04 19:24:00,
2013-04-04 12:30:00,63.0,35.6,29.83,WSW,254,0.0,0.0,36,0.00,,,0.00,Wunderground v.1.15,2013-04-04 19:30:00,
2013-04-04 12:36:00,63.3,35.2,29.82,SW,230,0.0,0.0,35,0.00,,,0.00,Wunderground v.1.15,2013-04-04 19:36:00,
2013-04-04 12:41:00,63.5,35.3,29.82,WSW,241,0.0,0.0,35,0.00,,,0.00,Wunderground v.1.15,2013-04-04 19:41:00,
2013-04-04 12:46:00,63.5,35.3,29.82,SW,229,0.0,0.0,35,0.00,,,0.00,Wunderground v.1.15,2013-04-04 19:46:00,
2013-04-04 12:52:00,63.5,35.3,29.82,SW,227,0.0,0.0,35,0.00,,,0.00,Wunderground v.1.15,2013-04-04 19:52:00,
2013-04-04 12:57:00,63.6,35.4,29.82,SW,233,0.0,0.0,35,0.00,,,0.00,Wunderground v.1.15,2013-04-04 19:57:00,
2013-04-04 13:02:00,63.7,34.8,29.82,SW,236,0.0,0.0,34,0.00,,,0.00,Wunderground v.1.15,2013-04-04 20:02:00,
2013-04-04 13:07:00,63.6,35.4,29.82,SW,227,0.0,0.0,35,0.00,,,0.00,Wunderground v.1.15,2013-04-04 20:07:00,
2013-04-04 13:13:00,63.8,35.6,29.82,West,264,0.0,0.0,35,0.00,,,0.00,Wunderground v.1.15,2013-04-04 20:13:00,
2013-04-04 13:18:00,63.9,35.7,29.82,WSW,241,0.0,0.0,35,0.00,,,0.00,Wunderground v.1.15,2013-04-04 20:18:00,
2013-04-04 13:24:00,64.8,35.8,29.81,West,274,0.0,0.0,34,0.00,,,0.00,Wunderground v.1.15,2013-04-04 20:24:00,
2013-04-04 13:30:00,65.3,35.4,29.81,WSW,237,0.0,0.0,33,0.00,,,0.00,Wunderground v.1.15,2013-04-04 20:30:00,
2013-04-04 13:35:00,65.9,35.2,29.81,West,273,0.0,0.0,32,0.00,,,0.00,Wunderground v.1.15,2013-04-04 20:35:00,
2013-04-04 13:40:00,66.2,34.7,29.81,WSW,245,0.0,0.0,31,0.00,,,0.00,Wunderground v.1.15,2013-04-04 20:40:00,
2013-04-04 13:46:00,67.5,35.0,29.80,WSW,237,0.0,0.0,30,0.00,,,0.00,Wunderground v.1.15,2013-04-04 20:46:00,
2013-04-04 13:52:00,67.5,34.1,29.81,SW,214,0.0,0.0,29,0.00,,,0.00,Wunderground v.1.15,2013-04-04 20:52:00,
2013-04-04 13:57:00,67.5,33.2,29.81,WSW,252,0.0,0.0,28,0.00,,,0.00,Wunderground v.1.15,2013-04-04 20:57:00,
2013-04-04 14:03:00,67.2,33.0,29.81,SW,219,0.0,0.0,28,0.00,,,0.00,Wunderground v.1.15,2013-04-04 21:03:00,
2013-04-04 14:09:00,67.5,32.3,29.80,SSW,206,0.0,0.0,27,0.00,,,0.00,Wunderground v.1.15,2013-04-04 21:09:00,
2013-04-04 14:15:00,68.2,32.0,29.79,WSW,254,0.0,0.0,26,0.00,,,0.00,Wunderground v.1.15,2013-04-04 21:15:00,
2013-04-04 14:20:00,68.4,31.2,29.80,WSW,252,0.0,0.0,25,0.00,,,0.00,Wunderground v.1.15,2013-04-04 21:20:00,
2013-04-04 14:25:00,68.3,32.1,29.79,WSW,255,0.0,0.0,26,0.00,,,0.00,Wunderground v.1.15,2013-04-04 21:25:00,
2013-04-04 14:31:00,68.2,32.9,29.79,SW,218,0.0,0.0,27,0.00,,,0.00,Wunderground v.1.15,2013-04-04 21:31:00,
2013-04-04 14:36:00,68.1,31.9,29.79,WSW,246,0.0,0.0,26,0.00,,,0.00,Wunderground v.1.15,2013-04-04 21:36:00,
2013-04-04 14:42:00,68.3,30.1,29.78,WSW,248,0.0,0.0,24,0.00,,,0.00,Wunderground v.1.15,2013-04-04 21:42:00,
2013-04-04 14:48:00,68.3,31.1,29.78,SW,236,0.0,0.0,25,0.00,,,0.00,Wunderground v.1.15,2013-04-04 21:48:00,
2013-04-04 14:53:00,68.8,29.5,29.78,WSW,248,0.0,0.0,23,0.00,,,0.00,Wunderground v.1.15,2013-04-04 21:53:00,
2013-04-04 14:59:00,68.6,30.3,29.78,WSW,251,0.0,0.0,24,0.00,,,0.00,Wunderground v.1.15,2013-04-04 21:59:00,
2013-04-04 15:05:00,68.7,27.2,29.78,SSW,193,0.0,0.0,21,0.00,,,0.00,Wunderground v.1.15,2013-04-04 22:05:00,
2013-04-04 15:11:00,68.3,31.1,29.78,WSW,247,0.0,0.0,25,0.00,,,0.00,Wunderground v.1.15,2013-04-04 22:11:00,
2013-04-04 15:16:00,67.8,31.6,29.78,WSW,248,0.0,0.0,26,0.00,,,0.00,Wunderground v.1.15,2013-04-04 22:16:00,
2013-04-04 15:22:00,68.5,31.3,29.78,SW,224,0.0,0.0,25,0.00,,,0.00,Wunderground v.1.15,2013-04-04 22:22:00,
2013-04-04 15:27:00,68.8,30.5,29.78,WSW,257,0.0,0.0,24,0.00,,,0.00,Wunderground v.1.15,2013-04-04 22:27:00,
2013-04-04 15:32:00,68.7,30.4,29.78,WSW,247,0.0,0.0,24,0.00,,,0.00,Wunderground v.1.15,2013-04-04 22:32:00,
2013-04-04 15:38:00,68.2,30.0,29.78,WSW,252,0.0,0.0,24,0.00,,,0.00,Wunderground v.1.15,2013-04-04 22:38:00,
2013-04-04 15:45:00,68.1,28.9,29.78,WSW,237,0.0,0.0,23,0.00,,,0.00,Wunderground v.1.15,2013-04-04 22:45:00,
2013-04-04 15:50:00,68.0,28.8,29.78,SW,223,0.0,0.0,23,0.00,,,0.00,Wunderground v.1.15,2013-04-04 22:50:00,
2013-04-04 15:56:00,67.6,27.4,29.78,SSW,206,0.0,0.0,22,0.00,,,0.00,Wunderground v.1.15,2013-04-04 22:56:00,
2013-04-04 16:02:00,68.1,28.9,29.78,SW,234,0.0,0.0,23,0.00,,,0.00,Wunderground v.1.15,2013-04-04 23:02:00,
2013-04-04 16:07:00,67.5,28.4,29.78,WSW,245,0.0,0.0,23,0.00,,,0.00,Wunderground v.1.15,2013-04-04 23:07:00,
2013-04-04 16:13:00,67.3,28.2,29.78,SW,226,0.0,0.0,23,0.00,,,0.00,Wunderground v.1.15,2013-04-04 23:13:00,
2013-04-04 16:18:00,67.1,29.1,29.78,WSW,247,0.0,0.0,24,0.00,,,0.00,Wunderground v.1.15,2013-04-04 23:18:00,
2013-04-04 16:23:00,66.9,28.9,29.78,WSW,252,0.0,0.0,24,0.00,,,0.00,Wunderground v.1.15,2013-04-04 23:23:00,
2013-04-04 16:29:00,66.7,29.7,29.78,WSW,248,0.0,0.0,25,0.00,,,0.00,Wunderground v.1.15,2013-04-04 23:29:00,
2013-04-04 16:35:00,66.9,29.9,29.77,WSW,248,0.0,0.0,25,0.00,,,0.00,Wunderground v.1.15,2013-04-04 23:35:00,
2013-04-04 16:40:00,66.5,29.6,29.78,WSW,243,0.0,0.0,25,0.00,,,0.00,Wunderground v.1.15,2013-04-04 23:40:00,
2013-04-04 16:45:00,66.5,29.6,29.78,WSW,250,0.0,0.0,25,0.00,,,0.00,Wunderground v.1.15,2013-04-04 23:45:00,
2013-04-04 16:51:00,66.0,31.0,29.77,WSW,243,0.0,0.0,27,0.00,,,0.00,Wunderground v.1.15,2013-04-04 23:51:00,
2013-04-04 16:56:00,65.8,30.9,29.77,SW,234,0.0,0.0,27,0.00,,,0.00,Wunderground v.1.15,2013-04-04 23:56:00,
2013-04-04 17:01:00,65.5,30.6,29.78,SW,218,0.0,0.0,27,0.00,,,0.00,Wunderground v.1.15,2013-04-05 00:01:00,
2013-04-04 17:07:00,65.3,30.4,29.78,WSW,249,0.0,0.0,27,0.00,,,0.00,Wunderground v.1.15,2013-04-05 00:07:00,
2013-04-04 17:12:00,65.4,30.5,29.78,WSW,250,0.0,0.0,27,0.00,,,0.00,Wunderground v.1.15,2013-04-05 00:12:00,
2013-04-04 17:18:00,65.2,32.1,29.78,WSW,251,0.0,0.0,29,0.00,,,0.00,Wunderground v.1.15,2013-04-05 00:18:00,
2013-04-04 17:24:00,64.5,32.4,29.78,WSW,255,0.0,0.0,30,0.00,,,0.00,Wunderground v.1.15,2013-04-05 00:24:00,
2013-04-04 17:29:00,64.2,30.4,29.78,WSW,240,0.0,0.0,28,0.00,,,0.00,Wunderground v.1.15,2013-04-05 00:29:00,
2013-04-04 17:35:00,63.6,30.7,29.78,WSW,252,0.0,0.0,29,0.00,,,0.00,Wunderground v.1.15,2013-04-05 00:35:00,
2013-04-04 17:40:00,63.6,30.7,29.78,WSW,250,0.0,0.0,29,0.00,,,0.00,Wunderground v.1.15,2013-04-05 00:40:00,
2013-04-04 17:45:00,63.2,30.4,29.78,WSW,245,0.0,0.0,29,0.00,,,0.00,Wunderground v.1.15,2013-04-05 00:45:00,
2013-04-04 17:50:00,62.9,31.0,29.78,WSW,255,0.0,0.0,30,0.00,,,0.00,Wunderground v.1.15,2013-04-05 00:50:00,
2013-04-04 17:55:00,62.7,31.6,29.79,WSW,254,0.0,0.0,31,0.00,,,0.00,Wunderground v.1.15,2013-04-05 00:55:00,
2013-04-04 18:00:00,62.3,32.0,29.79,WSW,250,0.0,0.0,32,0.00,,,0.00,Wunderground v.1.15,2013-04-05 01:00:00,
2013-04-04 18:07:00,61.8,33.1,29.79,WSW,252,0.0,0.0,34,0.00,,,0.00,Wunderground v.1.15,2013-04-05 01:07:00,
2013-04-04 18:12:00,61.7,33.0,29.79,West,267,0.0,0.0,34,0.00,,,0.00,Wunderground v.1.15,2013-04-05 01:12:00,
2013-04-04 18:17:00,61.3,31.2,29.79,WSW,243,0.0,0.0,32,0.00,,,0.00,Wunderground v.1.15,2013-04-05 01:17:00,
2013-04-04 18:22:00,61.2,31.1,29.79,WSW,238,0.0,0.0,32,0.00,,,0.00,Wunderground v.1.15,2013-04-05 01:22:00,
2013-04-04 18:28:00,61.0,32.4,29.79,SW,230,0.0,0.0,34,0.00,,,0.00,Wunderground v.1.15,2013-04-05 01:28:00,
2013-04-04 18:33:00,60.9,30.8,29.79,WSW,252,0.0,0.0,32,0.00,,,0.00,Wunderground v.1.15,2013-04-05 01:33:00,
2013-04-04 18:38:00,60.7,30.6,29.79,WSW,244,0.0,0.0,32,0.00,,,0.00,Wunderground v.1.15,2013-04-05 01:38:00,
2013-04-04 18:44:00,60.4,31.9,29.80,WSW,252,0.0,0.0,34,0.00,,,0.00,Wunderground v.1.15,2013-04-05 01:44:00,
2013-04-04 18:49:00,60.1,32.3,29.80,WSW,237,0.0,0.0,35,0.00,,,0.00,Wunderground v.1.15,2013-04-05 01:49:00,
2013-04-04 18:54:00,59.9,33.5,29.80,WSW,243,0.0,0.0,37,0.00,,,0.00,Wunderground v.1.15,2013-04-05 01:54:00,
2013-04-04 18:59:00,59.6,32.6,29.81,West,264,0.0,0.0,36,0.00,,,0.00,Wunderground v.1.15,2013-04-05 01:59:00,
2013-04-04 19:06:00,59.3,32.3,29.81,West,271,0.0,0.0,36,0.00,,,0.00,Wunderground v.1.15,2013-04-05 02:06:00,
2013-04-04 19:12:00,59.1,32.1,29.81,SW,233,0.0,0.0,36,0.00,,,0.00,Wunderground v.1.15,2013-04-05 02:12:00,
2013-04-04 19:17:00,58.9,32.0,29.81,WSW,250,0.0,0.0,36,0.00,,,0.00,Wunderground v.1.15,2013-04-05 02:17:00,
2013-04-04 19:23:00,58.7,32.5,29.81,WSW,255,0.0,0.0,37,0.00,,,0.00,Wunderground v.1.15,2013-04-05 02:23:00,
2013-04-04 19:28:00,58.5,31.6,29.81,WSW,248,0.0,0.0,36,0.00,,,0.00,Wunderground v.1.15,2013-04-05 02:28:00,
2013-04-04 19:34:00,58.3,31.4,29.80,WSW,255,0.0,0.0,36,0.00,,,0.00,Wunderground v.1.15,2013-04-05 02:34:00,
2013-04-04 19:39:00,58.3,31.4,29.80,WSW,240,0.0,0.0,36,0.00,,,0.00,Wunderground v.1.15,2013-04-05 02:39:00,
2013-04-04 19:45:00,58.2,32.0,29.81,WSW,251,0.0,0.0,37,0.00,,,0.00,Wunderground v.1.15,2013-04-05 02:45:00,
2013-04-04 19:51:00,58.1,31.9,29.81,WSW,252,0.0,0.0,37,0.00,,,0.00,Wunderground v.1.15,2013-04-05 02:51:00,
2013-04-04 19:57:00,58.0,31.8,29.80,WSW,237,0.0,0.0,37,0.00,,,0.00,Wunderground v.1.15,2013-04-05 02:57:00,
2013-04-04 20:03:00,58.0,32.5,29.81,WSW,245,0.0,0.0,38,0.00,,,0.00,Wunderground v.1.15,2013-04-05 03:03:00,
2013-04-04 20:09:00,57.9,33.1,29.81,WSW,245,0.0,0.0,39,0.00,,,0.00,Wunderground v.1.15,2013-04-05 03:09:00,
2013-04-04 20:15:00,57.9,33.7,29.81,SW,230,0.0,0.0,40,0.00,,,0.00,Wunderground v.1.15,2013-04-05 03:15:00,
2013-04-04 20:22:00,57.8,33.6,29.81,WSW,253,0.0,0.0,40,0.00,,,0.00,Wunderground v.1.15,2013-04-05 03:22:00,
2013-04-04 20:27:00,57.6,34.1,29.81,WSW,243,0.0,0.0,41,0.00,,,0.00,Wunderground v.1.15,2013-04-05 03:27:00,
2013-04-04 20:32:00,57.4,33.9,29.81,WSW,245,0.0,0.0,41,0.00,,,0.00,Wunderground v.1.15,2013-04-05 03:32:00,
2013-04-04 20:37:00,57.2,34.3,29.81,WSW,239,0.0,0.0,42,0.00,,,0.00,Wunderground v.1.15,2013-04-05 03:37:00,
2013-04-04 20:42:00,57.0,34.7,29.81,SW,231,0.0,0.0,43,0.00,,,0.00,Wunderground v.1.15,2013-04-05 03:42:00,
2013-04-04 20:48:00,56.9,34.6,29.82,WSW,239,0.0,0.0,43,0.00,,,0.00,Wunderground v.1.15,2013-04-05 03:48:00,
2013-04-04 20:54:00,56.6,34.9,29.83,WSW,243,0.0,0.0,44,0.00,,,0.00,Wunderground v.1.15,2013-04-05 03:54:00,
2013-04-04 21:00:00,56.4,34.7,29.83,SW,222,0.0,0.0,44,0.00,,,0.00,Wunderground v.1.15,2013-04-05 04:00:00,
2013-04-04 21:02:00,56.3,34.6,29.83,SW,231,0.0,0.0,44,0.00,,,0.00,Wunderground v.1.15,2013-04-05 04:02:00,
2013-04-04 21:05:00,56.1,34.5,29.83,SW,220,0.0,0.0,44,0.00,,,0.00,Wunderground v.1.15,2013-04-05 04:05:00,
2013-04-04 21:12:00,55.5,34.5,29.83,WSW,239,0.0,0.0,45,0.00,,,0.00,Wunderground v.1.15,2013-04-05 04:12:00,
2013-04-04 21:14:00,55.4,34.4,29.83,SW,236,0.0,0.0,45,0.00,,,0.00,Wunderground v.1.15,2013-04-05 04:14:00,
2013-04-04 21:19:00,55.0,34.0,29.83,WSW,239,0.0,0.0,45,0.00,,,0.00,Wunderground v.1.15,2013-04-05 04:19:00,
2013-04-04 21:25:00,54.7,33.8,29.83,WSW,242,0.0,0.0,45,0.00,,,0.00,Wunderground v.1.15,2013-04-05 04:25:00,
2013-04-04 21:30:00,54.6,33.1,29.83,WSW,255,0.0,0.0,44,0.00,,,0.00,Wunderground v.1.15,2013-04-05 04:30:00,
2013-04-04 21:35:00,54.7,31.4,29.83,WSW,252,0.0,0.0,41,0.00,,,0.00,Wunderground v.1.15,2013-04-05 04:35:00,
2013-04-04 21:40:00,54.5,30.6,29.83,SW,236,0.0,0.0,40,0.00,,,0.00,Wunderground v.1.15,2013-04-05 04:40:00,
2013-04-04 21:45:00,53.7,33.4,29.83,WSW,255,0.0,0.0,46,0.00,,,0.00,Wunderground v.1.15,2013-04-05 04:45:00,
2013-04-04 21:50:00,53.2,32.9,29.83,WSW,245,0.0,0.0,46,0.00,,,0.00,Wunderground v.1.15,2013-04-05 04:50:00,
2013-04-04 21:55:00,53.2,32.9,29.83,WSW,239,0.0,0.0,46,0.00,,,0.00,Wunderground v.1.15,2013-04-05 04:55:00,
2013-04-04 22:00:00,53.4,32.6,29.84,WSW,246,0.0,0.0,45,0.00,,,0.00,Wunderground v.1.15,2013-04-05 05:00:00,
2013-04-04 22:07:00,53.3,32.5,29.86,WSW,251,0.0,0.0,45,0.00,,,0.00,Wunderground v.1.15,2013-04-05 05:07:00,
2013-04-04 22:13:00,53.1,32.8,29.87,West,279,0.0,0.0,46,0.00,,,0.00,Wunderground v.1.15,2013-04-05 05:13:00,
2013-04-04 22:18:00,53.1,32.8,29.87,WSW,254,0.0,0.0,46,0.00,,,0.00,Wunderground v.1.15,2013-04-05 05:18:00,
2013-04-04 22:23:00,53.1,32.8,29.87,WNW,288,0.0,0.0,46,0.00,,,0.00,Wunderground v.1.15,2013-04-05 05:23:00,
2013-04-04 22:29:00,53.0,32.8,29.87,WSW,251,0.0,0.0,46,0.00,,,0.00,Wunderground v.1.15,2013-04-05 05:29:00,
2013-04-04 22:35:00,52.8,32.6,29.87,WNW,292,0.0,0.0,46,0.00,,,0.00,Wunderground v.1.15,2013-04-05 05:35:00,
2013-04-04 22:41:00,52.6,31.8,29.87,West,261,0.0,0.0,45,0.00,,,0.00,Wunderground v.1.15,2013-04-05 05:41:00,
2013-04-04 22:46:00,52.5,31.8,29.88,SW,224,0.0,0.0,45,0.00,,,0.00,Wunderground v.1.15,2013-04-05 05:46:00,
2013-04-04 22:52:00,52.0,32.4,29.89,South,173,0.0,0.0,47,0.00,,,0.00,Wunderground v.1.15,2013-04-05 05:52:00,
2013-04-04 22:57:00,51.7,32.6,29.88,WSW,238,0.0,0.0,48,0.00,,,0.00,Wunderground v.1.15,2013-04-05 05:57:00,
2013-04-04 23:03:00,51.4,33.4,29.88,West,259,0.0,0.0,50,0.00,,,0.00,Wunderground v.1.15,2013-04-05 06:03:00,
2013-04-04 23:08:00,51.2,33.2,29.88,West,263,0.0,0.0,50,0.00,,,0.00,Wunderground v.1.15,2013-04-05 06:08:00,
2013-04-04 23:13:00,51.2,32.7,29.88,West,281,0.0,0.0,49,0.00,,,0.00,Wunderground v.1.15,2013-04-05 06:13:00,
2013-04-04 23:19:00,51.6,33.0,29.88,WSW,243,0.0,0.0,49,0.00,,,0.00,Wunderground v.1.15,2013-04-05 06:19:00,
2013-04-04 23:25:00,51.3,33.8,29.88,SW,220,0.0,0.0,51,0.00,,,0.00,Wunderground v.1.15,2013-04-05 06:25:00,
2013-04-04 23:30:00,51.0,33.5,29.90,SSW,193,0.0,0.0,51,0.00,,,0.00,Wunderground v.1.15,2013-04-05 06:30:00,
2013-04-04 23:36:00,50.8,33.3,29.91,SE,132,0.0,0.0,51,0.00,,,0.00,Wunderground v.1.15,2013-04-05 06:36:00,
2013-04-04 23:42:00,51.1,33.1,29.91,East,83,0.0,0.0,50,0.00,,,0.00,Wunderground v.1.15,2013-04-05 06:42:00,
2013-04-04 23:47:00,51.5,32.4,29.91,NE,52,0.0,0.0,48,0.00,,,0.00,Wunderground v.1.15,2013-04-05 06:47:00,
2013-04-04 23:53:00,51.9,31.7,29.90,SE,134,0.0,0.0,46,0.00,,,0.00,Wunderground v.1.15,2013-04-05 06:53:00,
2013-04-04 23:58:00,52.1,31.9,29.91,West,268,0.0,0.0,46,0.00,,,0.00,Wunderground v.1.15,2013-04-05 06:58:00,